Change the Weather History Date:

Saturday, March 22, 2014

  Actual Average (KGUC) Record (KGUC)
Temperature  
Mean Temperature 18 °F -  
Max Temperature 23 °F 46 °F 66 °F (2004)
Min Temperature 14 °F 19 °F 6 °F (2008)
Degree Days  
Heating Degree Days 46    
Moisture  
Dew Point 14 °F    
Average Humidity 81    
Maximum Humidity 93    
Minimum Humidity 58    
Precipitation  
Precipitation 0.00 in - - ()
Sea Level Pressure  
Sea Level Pressure 30.18 in    
Wind  
Wind Speed 21 mph (WSW)    
Max Wind Speed 39 mph    
Max Gust Speed 50 mph    
Visibility 5 miles    
Events Fog , Snow    
Averages and records for this station are not official NWS values.
T = Trace of Precipitation, MM = Missing Value Source: NWS Daily Summary

Daily Weather History Graph

Daily Weather History Graph

Search for Another Location

Airport or City:

Trip Planner

Search our weather history database for the weather conditions in past years. The results will help you decide how hot, cold, wet, or windy it might be!

Date:

Astronomy

Mar. 22, 2014 Rise Set
Actual Time 7:05 AM MDT 7:19 PM MDT
Civil Twilight 6:39 AM MDT 7:45 PM MDT
Nautical Twilight 6:08 AM MDT 8:16 PM MDT
Astronomical Twilight 5:36 AM MDT 8:48 PM MDT
Moon 12:37 AM MDT (3/22) 10:55 AM MDT (3/22)
Length of Visible Light 13h 06m
Length of Day
12h 13m
Waning Gibbous, 65% of the Moon is Illuminated
Mar 22
Waning Gibbous
Mar 23
Last Quarter
Mar 30
New
Apr 7
First Quarter
Apr 15
Full

Hourly Weather History & Observations

Time (MDT) Temp. Windchill Dew Point Humidity Pressure Visibility Wind Dir Wind Speed Gust Speed Precip Events Conditions
12:15 AM 21.2 °F 8.3 °F 10.4 °F 63% 30.20 in 10.0 mi WSW 13.8 mph - N/A   Mostly Cloudy
12:34 AM 21.2 °F 7.3 °F 12.2 °F 68% 30.18 in 10.0 mi WSW 16.1 mph - N/A   Overcast
12:52 AM 21.2 °F 6.8 °F 10.4 °F 63% 30.18 in 10.0 mi WSW 17.3 mph - N/A   Overcast
1:15 AM 21.2 °F 7.8 °F 10.4 °F 63% 30.17 in 10.0 mi SW 15.0 mph - N/A   Overcast
1:30 AM 21.2 °F 8.3 °F 10.4 °F 63% 30.17 in 10.0 mi SW 13.8 mph - N/A   Overcast
1:55 AM 21.2 °F 8.3 °F 10.4 °F 63% 30.17 in 10.0 mi SSW 13.8 mph - N/A   Overcast
2:15 AM 21.2 °F 8.3 °F 10.4 °F 63% 30.16 in 10.0 mi SSW 13.8 mph - N/A   Overcast
2:35 AM 21.2 °F 8.3 °F 10.4 °F 63% 30.15 in 10.0 mi SSW 13.8 mph - N/A   Mostly Cloudy
2:55 AM 21.2 °F 6.4 °F 10.4 °F 63% 30.14 in 10.0 mi SSW 18.4 mph - N/A   Scattered Clouds
3:15 AM 21.2 °F 6.8 °F 10.4 °F 63% 30.14 in 10.0 mi SSW 17.3 mph - N/A   Mostly Cloudy
3:35 AM 21.2 °F 6.4 °F 10.4 °F 63% 30.13 in 10.0 mi SSW 18.4 mph - N/A   Mostly Cloudy
3:49 AM 21.2 °F 6.8 °F 10.4 °F 63% 30.13 in 10.0 mi SSW 17.3 mph - N/A   Overcast
4:15 AM 21.2 °F 5.6 °F 10.4 °F 63% 30.12 in 10.0 mi SW 20.7 mph - N/A   Overcast
4:35 AM 19.4 °F 4.1 °F 10.4 °F 68% 30.12 in 10.0 mi SW 18.4 mph - N/A   Overcast
4:54 AM 21.2 °F 6.4 °F 10.4 °F 63% 30.12 in 10.0 mi SW 18.4 mph - N/A   Overcast
5:10 AM 19.4 °F 3.2 °F 10.4 °F 68% 30.12 in 10.0 mi SW 20.7 mph - N/A   Mostly Cloudy
5:35 AM 19.4 °F 4.1 °F 10.4 °F 68% 30.12 in 10.0 mi SW 18.4 mph - N/A   Overcast
5:55 AM 21.2 °F 6.4 °F 10.4 °F 63% 30.12 in 10.0 mi SW 18.4 mph - N/A   Overcast
6:14 AM 21.2 °F 6.4 °F 10.4 °F 63% 30.12 in 10.0 mi SW 18.4 mph - N/A   Overcast
6:29 AM 21.2 °F 6.8 °F 8.6 °F 58% 30.13 in 10.0 mi WSW 17.3 mph - N/A   Overcast
6:48 AM 21.2 °F 6.4 °F 8.6 °F 58% 30.13 in 10.0 mi SW 18.4 mph - N/A   Overcast
7:15 AM 21.2 °F 7.3 °F 8.6 °F 58% 30.14 in 10.0 mi WSW 16.1 mph - N/A   Overcast
7:33 AM 21.2 °F 7.8 °F 10.4 °F 63% 30.14 in 10.0 mi WSW 15.0 mph 33.4 mph N/A   Overcast
7:54 AM 21.2 °F 4.5 °F 10.4 °F 63% 30.14 in 10.0 mi West 24.2 mph 33.4 mph N/A   Overcast
8:13 AM 21.2 °F 2.4 °F 12.2 °F 68% 30.13 in 5.0 mi West 32.2 mph 41.4 mph N/A Snow Light Snow
8:31 AM 21.2 °F 3.0 °F 14.0 °F 74% 30.13 in 2.5 mi West 29.9 mph 44.9 mph N/A Snow Light Snow
8:55 AM 21.2 °F 1.9 °F 14.0 °F 74% 30.13 in 2.5 mi West 34.5 mph 42.6 mph N/A Snow Light Snow
9:13 AM 21.2 °F 2.7 °F 17.6 °F 86% 30.13 in 2.0 mi West 31.1 mph 36.8 mph N/A Snow Light Snow
9:29 AM 21.2 °F 3.3 °F 17.6 °F 86% 30.13 in 1.2 mi West 28.8 mph 40.3 mph N/A Snow Light Snow
9:52 AM 21.2 °F 3.5 °F 17.6 °F 86% 30.14 in 2.0 mi West 27.6 mph 31.1 mph N/A Snow Light Snow
10:10 AM 19.4 °F 0.8 °F 17.6 °F 93% 30.14 in 0.5 mi West 28.8 mph 34.5 mph N/A Snow Light Snow
10:31 AM 19.4 °F 0.8 °F 17.6 °F 93% 30.14 in 0.2 mi WSW 28.8 mph 39.1 mph N/A Snow Light Snow
10:46 AM 19.4 °F -0.8 °F 17.6 °F 93% 30.14 in 0.2 mi West 35.7 mph 40.3 mph N/A Snow Heavy Snow
11:11 AM 19.4 °F 3.2 °F 17.6 °F 93% 30.14 in 0.2 mi WSW 20.7 mph 33.4 mph N/A Fog Light Freezing Fog
11:30 AM 19.4 °F 2.1 °F 17.6 °F 93% 30.13 in 7.0 mi SW 24.2 mph 35.7 mph N/A   Overcast
11:55 AM 19.4 °F 1.1 °F 17.6 °F 93% 30.13 in 7.0 mi SW 27.6 mph 38.0 mph N/A   Overcast
12:13 PM 21.2 °F 2.2 °F 17.6 °F 86% 30.13 in 10.0 mi West 33.4 mph 39.1 mph N/A   Overcast
12:35 PM 23.0 °F 6.6 °F 17.6 °F 80% 30.13 in 7.0 mi West 25.3 mph 38.0 mph N/A   Overcast
12:47 PM 23.0 °F 6.3 °F 17.6 °F 80% 30.13 in 7.0 mi WSW 26.5 mph 38.0 mph N/A   Overcast
1:15 PM 21.2 °F 3.9 °F 17.6 °F 86% 30.14 in 7.0 mi West 26.5 mph 40.3 mph N/A   Overcast
1:31 PM 21.2 °F 1.7 °F 17.6 °F 86% 30.13 in 4.0 mi West 35.7 mph 41.4 mph N/A Snow Light Snow
1:53 PM 21.2 °F 2.4 °F 19.4 °F 93% 30.13 in 2.5 mi West 32.2 mph 41.4 mph N/A Snow Light Snow
2:15 PM 21.2 °F 1.7 °F 19.4 °F 93% 30.13 in 0.2 mi West 35.7 mph 44.9 mph N/A Fog Light Freezing Fog
2:33 PM 21.2 °F 1.9 °F 19.4 °F 93% 30.12 in 0.2 mi West 34.5 mph 49.5 mph N/A Fog Light Freezing Fog
2:54 PM 21.2 °F 0.9 °F 19.4 °F 93% 30.13 in 0.2 mi West 39.1 mph 49.5 mph N/A Fog Light Freezing Fog
3:13 PM 21.2 °F 1.9 °F 19.4 °F 93% 30.13 in 0.2 mi WSW 34.5 mph 43.7 mph N/A Snow Light Snow
3:34 PM 21.2 °F 1.4 °F 19.4 °F 93% 30.14 in 0.2 mi West 36.8 mph 40.3 mph N/A Snow Heavy Snow
3:52 PM 21.2 °F 0.9 °F 19.4 °F 93% 30.13 in 0.2 mi West 39.1 mph 47.2 mph N/A Snow Heavy Snow
4:29 PM 21.2 °F 4.5 °F 19.4 °F 93% 30.16 in 0.2 mi West 24.2 mph 38.0 mph N/A Snow Light Snow
4:55 PM 19.4 °F - 17.6 °F 93% 30.18 in 0.2 mi North - - N/A Snow Light Snow
5:03 PM 19.4 °F 1.1 °F 17.6 °F 93% 30.18 in 2.5 mi West 27.6 mph - N/A Snow Light Snow
5:33 PM 19.4 °F - 17.6 °F 93% 30.20 in 0.2 mi North - - N/A Snow Snow
5:55 PM 19.4 °F 1.8 °F 17.6 °F 93% 30.21 in 0.2 mi West 25.3 mph 34.5 mph N/A Fog Light Freezing Fog
6:15 PM 19.4 °F 5.0 °F 17.6 °F 93% 30.22 in 0.2 mi West 16.1 mph - N/A Snow Light Snow
6:29 PM 19.4 °F 4.5 °F 17.6 °F 93% 30.23 in 0.2 mi West 17.3 mph - N/A Snow Light Snow
6:49 PM 19.4 °F 5.5 °F 17.6 °F 93% 30.24 in 0.2 mi West 15.0 mph - N/A Snow Light Snow
7:10 PM 19.4 °F 6.0 °F 17.6 °F 93% 30.25 in 0.2 mi West 13.8 mph - N/A   Overcast
7:35 PM 19.4 °F 5.5 °F 17.6 °F 93% 30.25 in 0.2 mi West 15.0 mph - N/A Snow Heavy Snow
7:49 PM 19.4 °F 6.0 °F 17.6 °F 93% 30.26 in 0.2 mi West 13.8 mph 27.6 mph N/A Snow Heavy Snow
8:11 PM 19.4 °F - 17.6 °F 93% 30.27 in 0.2 mi North - - N/A Snow Snow
8:33 PM 19.4 °F - 15.8 °F 86% 30.28 in 0.2 mi North - - N/A Snow Light Snow
8:53 PM 17.6 °F - 15.8 °F 93% 30.29 in 2.0 mi North - - N/A Snow Light Snow
9:08 PM 15.8 °F - 12.2 °F 86% 30.29 in 7.0 mi North - - N/A   Mostly Cloudy
9:29 PM 14.0 °F - 12.2 °F 93% 30.29 in 10.0 mi North - - N/A   Scattered Clouds
9:43 PM 14.0 °F - 12.2 °F 93% 30.29 in 10.0 mi North - - N/A   Scattered Clouds
10:13 PM 14.0 °F - 12.2 °F 93% 30.29 in 10.0 mi North - - N/A   Clear
10:35 PM 14.0 °F - 12.2 °F 93% 30.30 in 10.0 mi North - - N/A   Clear
10:55 PM 14.0 °F - 12.2 °F 93% 30.30 in 0.8 mi North - - N/A   Mist
11:05 PM 14.0 °F - 12.2 °F 93% 30.30 in 0.2 mi North - - N/A Fog Light Freezing Fog
11:32 PM 14.0 °F - 12.2 °F 93% 30.30 in 5.0 mi North - - N/A   Clear
11:51 PM 14.0 °F - 12.2 °F 93% 30.30 in 7.0 mi North - - N/A   Clear